���t,����,�O�C���x,�����t���O,�O�C���Ύ��x,�����t���O,���ԉ��x,�����t���O,���ԑ��Ύ��x,�����t���O,�g�C������,�����t���O,�L�b�`�����x,�����t���O,��󒲎����x,�����t���O
2004/5/1,0:00,17.6,0,74,0,26.1,0,51,0,=,1,24.8,0,23.2,0
2004/5/1,0:15,17.4,0,75,0,26.1,0,52,0,=,1,24.9,0,23.3,0
2004/5/1,0:30,17.3,0,74,0,26,0,52,0,=,1,24.9,0,23.3,0
2004/5/1,0:45,17.1,0,76,0,25.9,0,52,0,=,1,24.9,0,23.3,0
2004/5/1,1:00,17,0,77,0,25.8,0,52,0,=,1,24.8,0,23.2,0
2004/5/1,1:15,16.8,0,78,0,25.7,0,53,0,=,1,24.8,0,23.2,0
2004/5/1,1:30,16.7,0,79,0,25.6,0,53,0,=,1,24.8,0,23.2,0
2004/5/1,1:45,16.7,0,80,0,25.5,0,53,0,=,1,24.8,0,23.2,0
2004/5/1,2:00,16.6,0,80,0,25.4,0,53,0,=,1,24.7,0,23.1,0
2004/5/1,2:15,16.7,0,80,0,25.3,0,53,0,=,1,24.7,0,23.1,0
2004/5/1,2:30,16.8,0,80,0,25.3,0,53,0,=,1,24.7,0,23.1,0
2004/5/1,2:45,16.9,0,81,0,25.2,0,54,0,=,1,24.7,0,23.1,0
2004/5/1,3:00,16.7,0,82,0,25.1,0,54,0,=,1,24.6,0,23.1,0
2004/5/1,3:15,16.6,0,83,0,25,0,54,0,=,1,24.6,0,23,0
2004/5/1,3:30,16.6,0,83,0,25,0,54,0,=,1,24.6,0,23,0
2004/5/1,3:45,16.7,0,85,0,24.9,0,54,0,=,1,24.5,0,23,0
2004/5/1,4:00,16.7,0,86,0,24.8,0,54,0,=,1,24.5,0,23,0
2004/5/1,4:15,16.7,0,87,0,24.7,0,54,0,=,1,24.4,0,22.9,0
2004/5/1,4:30,16.6,0,87,0,24.6,0,55,0,=,1,24.4,0,22.9,0
2004/5/1,4:45,16.5,0,87,0,24.5,0,55,0,=,1,24.4,0,22.9,0
2004/5/1,5:00,16.5,0,86,0,24.6,0,55,0,=,1,24.3,0,22.9,0
2004/5/1,5:15,16.4,0,86,0,24.4,0,55,0,=,1,24.3,0,22.8,0
2004/5/1,5:30,16.4,0,86,0,24.5,0,55,0,=,1,24.2,0,22.8,0
2004/5/1,5:45,16.2,0,87,0,24.3,0,55,0,=,1,24.2,0,22.8,0
2004/5/1,6:00,16.3,0,86,0,24.3,0,55,0,=,1,24.2,0,22.8,0
2004/5/1,6:15,16.2,0,87,0,24.2,0,56,0,=,1,24.1,0,22.8,0
2004/5/1,6:30,16.4,0,87,0,24.2,0,55,0,=,1,24.1,0,22.7,0
2004/5/1,6:45,16.6,0,86,0,24.1,0,55,0,=,1,24.1,0,22.7,0
2004/5/1,7:00,16.7,0,84,0,24.1,0,57,0,=,1,24,0,22.7,0
2004/5/1,7:15,16.9,0,84,0,24,0,57,0,=,1,24,0,22.7,0
2004/5/1,7:30,17.1,0,82,0,23.8,0,57,0,=,1,23.9,0,22.7,0
2004/5/1,7:45,17.6,0,79,0,23.6,0,57,0,=,1,23.8,0,22.6,0
2004/5/1,8:00,18.3,0,74,0,23.2,0,58,0,=,1,23.6,0,22.5,0
2004/5/1,8:15,18.4,0,73,0,23.3,0,59,0,=,1,23.5,0,22.4,0
2004/5/1,8:30,18.1,0,74,0,23.4,0,60,0,=,1,23.2,0,22.2,0
2004/5/1,8:45,18.3,0,74,0,23.4,0,59,0,=,1,23.1,0,22.1,0
2004/5/1,9:00,18.6,0,73,0,23.5,0,58,0,=,1,23.1,0,22,0
2004/5/1,9:15,19.1,0,72,0,23.7,0,59,0,=,1,23.1,0,21.9,0
2004/5/1,9:30,19.6,0,68,0,23.8,0,58,0,=,1,23.2,0,21.8,0
2004/5/1,9:45,20.8,0,63,0,23.9,0,58,0,=,1,23.2,0,21.8,0
2004/5/1,10:00,21.5,0,59,0,24,0,57,0,=,1,23.2,0,21.8,0
2004/5/1,10:15,22.6,0,54,0,23.9,0,58,0,=,1,23.3,0,21.8,0
2004/5/1,10:30,23,0,51,0,24,0,57,0,=,1,23.3,0,21.8,0
2004/5/1,10:45,23.5,0,49,0,24,0,57,0,=,1,23.4,0,21.9,0
2004/5/1,11:00,24.3,0,46,0,24,0,57,0,=,1,23.4,0,21.9,0
2004/5/1,11:15,23.9,0,48,0,24,0,57,0,=,1,23.4,0,22,0
2004/5/1,11:30,23.3,0,50,0,24,0,57,0,=,1,23.5,0,22.1,0
2004/5/1,11:45,23.7,0,48,0,24,0,58,0,=,1,23.5,0,22.2,0
2004/5/1,12:00,23.7,0,48,0,23.9,0,58,0,=,1,23.5,0,22.2,0
2004/5/1,12:15,23,0,51,0,24,0,58,0,=,1,23.6,0,22.3,0
2004/5/1,12:30,23.5,0,49,0,24,0,58,0,=,1,23.6,0,22.4,0
2004/5/1,12:45,22.7,0,51,0,24,0,59,0,=,1,23.6,0,22.5,0
2004/5/1,13:00,22.5,0,53,0,24.1,0,59,0,=,1,23.6,0,22.6,0
2004/5/1,13:15,23,0,51,0,24.1,0,58,0,=,1,23.6,0,22.7,0
2004/5/1,13:30,22.3,0,52,0,24,0,58,0,=,1,23.7,0,22.8,0
2004/5/1,13:45,22.2,0,54,0,24.1,0,58,0,=,1,23.7,0,22.8,0
2004/5/1,14:00,22.3,0,53,0,24.2,0,58,0,=,1,23.7,0,22.9,0
2004/5/1,14:15,22.3,0,51,0,24.4,0,58,0,=,1,23.8,0,22.9,0
2004/5/1,14:30,22.2,0,53,0,24.5,0,57,0,=,1,23.8,0,23,0
2004/5/1,14:45,22,0,54,0,24.7,0,57,0,=,1,23.9,0,23,0
2004/5/1,15:00,22.2,0,54,0,24.9,0,57,0,=,1,24,0,23.1,0
2004/5/1,15:15,22.4,0,53,0,25.1,0,57,0,=,1,24.2,0,23.2,0
2004/5/1,15:30,22.6,0,51,0,25.1,0,56,0,=,1,24.2,0,23.2,0
2004/5/1,15:45,22.4,0,53,0,25.2,0,56,0,=,1,24.3,0,23.2,0
2004/5/1,16:00,22.2,0,53,0,25.3,0,56,0,=,1,24.4,0,23.3,0
2004/5/1,16:15,21.5,0,55,0,25.4,0,55,0,=,1,24.5,0,23.3,0
2004/5/1,16:30,20.8,0,56,0,25.5,0,55,0,=,1,24.6,0,23.3,0
2004/5/1,16:45,20.4,0,59,0,25.6,0,56,0,=,1,24.6,0,23.4,0
2004/5/1,17:00,20.1,0,60,0,25.6,0,56,0,=,1,24.7,0,23.4,0
2004/5/1,17:15,19.4,0,63,0,25.6,0,54,0,=,1,24.7,0,23.5,0
2004/5/1,17:30,18.9,0,65,0,25.5,0,52,0,=,1,24.8,0,23.5,0
2004/5/1,17:45,19,0,66,0,25.5,0,53,0,=,1,24.7,0,23.5,0
2004/5/1,18:00,18.6,0,67,0,25.5,0,54,0,=,1,24.7,0,23.5,0
2004/5/1,18:15,18.4,0,69,0,25.6,0,54,0,=,1,24.6,0,23.5,0
2004/5/1,18:30,18.3,0,70,0,25.7,0,54,0,=,1,24.7,0,23.5,0
2004/5/1,18:45,18.1,0,71,0,25.5,0,50,0,=,1,24.7,0,23.5,0
2004/5/1,19:00,17.8,0,72,0,25.2,0,51,0,=,1,24.6,0,23.5,0
2004/5/1,19:15,17.9,0,72,0,25.1,0,52,0,=,1,24.4,0,23.5,0
2004/5/1,19:30,18,0,72,0,25.1,0,52,0,=,1,24.2,0,23.5,0
2004/5/1,19:45,18.1,0,71,0,24.7,0,52,0,=,1,24.2,0,23.4,0
2004/5/1,20:00,18,0,71,0,24.5,0,54,0,=,1,24.1,0,23.4,0
2004/5/1,20:15,17.9,0,71,0,24.7,0,54,0,=,1,23.9,0,23.4,0
2004/5/1,20:30,17.8,0,73,0,24.9,0,55,0,=,1,23.8,0,23.4,0
2004/5/1,20:45,17.6,0,73,0,24.7,0,55,0,=,1,23.9,0,23.4,0
2004/5/1,21:00,17.5,0,74,0,24.8,0,55,0,=,1,23.9,0,23.4,0
2004/5/1,21:15,17.4,0,74,0,24.8,0,56,0,=,1,24,0,23.4,0
2004/5/1,21:30,17.3,0,74,0,24.8,0,56,0,=,1,24.1,0,23.4,0
2004/5/1,21:45,17.1,0,76,0,24.9,0,56,0,=,1,24.2,0,23.5,0
2004/5/1,22:00,17.2,0,76,0,24.9,0,57,0,=,1,24.2,0,23.5,0
2004/5/1,22:15,17,0,76,0,24.8,0,57,0,=,1,24.2,0,23.5,0
2004/5/1,22:30,16.9,0,77,0,25,0,57,0,=,1,24.3,0,23.5,0
2004/5/1,22:45,16.9,0,77,0,25.2,0,58,0,=,1,24.3,0,23.5,0
2004/5/1,23:00,16.9,0,77,0,25.4,0,58,0,=,1,24.3,0,23.6,0
2004/5/1,23:15,16.8,0,78,0,25.5,0,58,0,=,1,24.4,0,23.6,0
2004/5/1,23:30,16.8,0,78,0,25.7,0,57,0,=,1,24.5,0,23.6,0
2004/5/1,23:45,16.8,0,78,0,25.7,0,57,0,=,1,24.6,0,23.6,0
2004/5/2,0:00,16.7,0,79,0,25.7,0,56,0,=,1,24.7,0,23.6,0
2004/5/2,0:15,16.7,0,80,0,25.7,0,56,0,=,1,24.7,0,23.6,0
2004/5/2,0:30,16.7,0,81,0,25.6,0,55,0,=,1,24.7,0,23.6,0
2004/5/2,0:45,16.7,0,81,0,25.5,0,55,0,=,1,24.7,0,23.6,0
2004/5/2,1:00,16.7,0,82,0,25.4,0,55,0,=,1,24.7,0,23.6,0
2004/5/2,1:15,16.7,0,82,0,25.2,0,56,0,=,1,24.6,0,23.6,0
2004/5/2,1:30,16.6,0,82,0,25.2,0,56,0,=,1,24.6,0,23.6,0
2004/5/2,1:45,16.5,0,82,0,25.1,0,56,0,=,1,24.6,0,23.6,0
2004/5/2,2:00,16.4,0,81,0,25,0,56,0,=,1,24.6,0,23.6,0
2004/5/2,2:15,16.3,0,82,0,25,0,56,0,=,1,24.6,0,23.6,0
2004/5/2,2:30,16.3,0,83,0,24.9,0,56,0,=,1,24.6,0,23.6,0
2004/5/2,2:45,16.3,0,82,0,24.9,0,57,0,=,1,24.5,0,23.6,0
2004/5/2,3:00,16.3,0,83,0,24.7,0,57,0,=,1,24.5,0,23.6,0
2004/5/2,3:15,16.2,0,83,0,24.7,0,56,0,=,1,24.5,0,23.6,0
2004/5/2,3:30,16,0,85,0,24.6,0,57,0,=,1,24.4,0,23.6,0
2004/5/2,3:45,16,0,84,0,24.5,0,57,0,=,1,24.4,0,23.6,0
2004/5/2,4:00,16.1,0,84,0,24.4,0,57,0,=,1,24.4,0,23.5,0
2004/5/2,4:15,16,0,84,0,24.4,0,57,0,=,1,24.3,0,23.5,0
2004/5/2,4:30,16,0,85,0,24.3,0,57,0,=,1,24.3,0,23.5,0
2004/5/2,4:45,15.9,0,85,0,24.3,0,57,0,=,1,24.2,0,23.4,0
2004/5/2,5:00,15.9,0,85,0,24.2,0,57,0,=,1,24.2,0,23.4,0
2004/5/2,5:15,16,0,86,0,24.2,0,61,0,=,1,24.2,0,23.4,0
2004/5/2,5:30,15.7,0,86,0,24.2,0,63,0,=,1,24.1,0,23.4,0
2004/5/2,5:45,15.7,0,87,0,24.1,0,61,0,=,1,24.2,0,23.3,0
2004/5/2,6:00,15.9,0,87,0,24.1,0,61,0,=,1,24.1,0,23.3,0
2004/5/2,6:15,15.9,0,87,0,24,0,60,0,=,1,24.1,0,23.3,0
2004/5/2,6:30,16,0,86,0,24,0,60,0,=,1,24.1,0,23.3,0
2004/5/2,6:45,16,0,85,0,24,0,60,0,=,1,24.1,0,23.2,0
2004/5/2,7:00,16.1,0,84,0,24,0,59,0,=,1,24,0,23.2,0
2004/5/2,7:15,16.3,0,83,0,23.8,0,59,0,=,1,24,0,23.2,0
2004/5/2,7:30,16.7,0,82,0,23.8,0,59,0,=,1,24,0,23.2,0
2004/5/2,7:45,16.8,0,81,0,23.9,0,59,0,=,1,23.9,0,23.1,0
2004/5/2,8:00,17,0,80,0,24.1,0,59,0,=,1,23.9,0,23.1,0
2004/5/2,8:15,17.2,0,78,0,24.1,0,59,0,=,1,23.9,0,23.1,0
2004/5/2,8:30,17.4,0,79,0,24.2,0,59,0,=,1,23.9,0,23,0
2004/5/2,8:45,17.5,0,77,0,24.3,0,59,0,=,1,23.9,0,23,0
2004/5/2,9:00,17.5,0,77,0,24.4,0,59,0,=,1,23.9,0,22.9,0
2004/5/2,9:15,17.8,0,77,0,24.2,0,57,0,=,1,23.9,0,22.9,0
2004/5/2,9:30,17.8,0,76,0,23.8,0,57,0,=,1,24,0,22.9,0
2004/5/2,9:45,17.9,0,75,0,23.3,0,59,0,=,1,23.7,0,22.8,0
2004/5/2,10:00,18.1,0,75,0,23.1,0,59,0,=,1,23.2,0,22.8,0
2004/5/2,10:15,18.7,0,73,0,23.1,0,60,0,=,1,22.8,0,22.8,0
2004/5/2,10:30,19.2,0,70,0,23.2,0,60,0,=,1,22.6,0,22.8,0
2004/5/2,10:45,20,0,67,0,23.1,0,61,0,=,1,22.5,0,22.8,0
2004/5/2,11:00,21.3,0,61,0,23,0,62,0,=,1,22.4,0,22.7,0
2004/5/2,11:15,21.9,0,57,0,22.9,0,63,0,=,1,22.3,0,22.7,0
2004/5/2,11:30,21.8,0,57,0,22.9,0,63,0,=,1,22.2,0,22.7,0
2004/5/2,11:45,21.8,0,54,0,23,0,63,0,=,1,22.2,0,22.7,0
2004/5/2,12:00,22.1,0,52,0,23,0,63,0,=,1,22.3,0,22.7,0
2004/5/2,12:15,22.5,0,53,0,23.1,0,59,0,=,1,22.4,0,22.7,0
2004/5/2,12:30,21.8,0,48,0,23.1,0,60,0,=,1,22.4,0,22.7,0
2004/5/2,12:45,21.5,0,46,0,23.2,0,61,0,=,1,22.5,0,22.8,0
2004/5/2,13:00,21.8,0,45,0,23.2,0,58,0,=,1,22.6,0,22.9,0
2004/5/2,13:15,22.2,0,46,0,23.3,0,54,0,=,1,22.7,0,22.9,0
2004/5/2,13:30,22.8,0,43,0,23.5,0,56,0,=,1,22.7,0,22.9,0
2004/5/2,13:45,22.9,0,41,0,23.7,0,54,0,=,1,22.7,0,22.9,0
2004/5/2,14:00,23.5,0,39,0,23.9,0,52,0,=,1,22.9,0,22.9,0
2004/5/2,14:15,24.4,0,37,0,24,0,51,0,=,1,23.1,0,22.9,0
2004/5/2,14:30,25.4,0,35,0,24.3,0,49,0,=,1,23.3,0,22.9,0
2004/5/2,14:45,24.6,0,38,0,24.6,0,49,0,=,1,23.4,0,22.9,0
2004/5/2,15:00,25,0,37,0,24.8,0,52,0,=,1,23.6,0,22.9,0
2004/5/2,15:15,25.2,0,37,0,25,0,49,0,=,1,23.8,0,22.9,0
2004/5/2,15:30,23.9,0,40,0,25.2,0,49,0,=,1,24,0,23,0
2004/5/2,15:45,23.4,0,44,0,25.4,0,49,0,=,1,24.1,0,23.1,0
2004/5/2,16:00,22.9,0,46,0,25.2,0,47,0,=,1,24.2,0,23.1,0
2004/5/2,16:15,22.8,0,46,0,25.1,0,50,0,=,1,24.3,0,23.2,0
2004/5/2,16:30,22.7,0,47,0,25.1,0,49,0,=,1,24.3,0,23.2,0
2004/5/2,16:45,22.8,0,47,0,25.2,0,49,0,=,1,24.3,0,23.3,0
2004/5/2,17:00,22.8,0,47,0,25.1,0,48,0,=,1,24.2,0,23.4,0
2004/5/2,17:15,22.6,0,48,0,25.1,0,49,0,=,1,24.2,0,23.4,0
2004/5/2,17:30,22.7,0,48,0,25.2,0,50,0,=,1,24.2,0,23.4,0
2004/5/2,17:45,22.5,0,48,0,25.3,0,50,0,=,1,24.2,0,23.5,0
2004/5/2,18:00,22.5,0,49,0,25.3,0,51,0,=,1,24.3,0,23.5,0
2004/5/2,18:15,22.3,0,50,0,25.3,0,51,0,=,1,24.3,0,23.5,0
2004/5/2,18:30,22.3,0,50,0,25.5,0,51,0,=,1,24.3,0,23.5,0
2004/5/2,18:45,22.3,0,50,0,25.5,0,53,0,=,1,24.4,0,23.6,0
2004/5/2,19:00,22,0,52,0,25.8,0,54,0,=,1,24.5,0,23.6,0
2004/5/2,19:15,21.8,0,53,0,25.8,0,52,0,=,1,24.6,0,23.7,0
2004/5/2,19:30,21.7,0,55,0,25.3,0,51,0,=,1,24.8,0,23.7,0
2004/5/2,19:45,21.7,0,55,0,25.3,0,52,0,=,1,24.7,0,23.7,0
2004/5/2,20:00,21.3,0,59,0,25.9,0,57,0,=,1,24.7,0,23.8,0
2004/5/2,20:15,21.2,0,59,0,26.2,0,57,0,=,1,24.7,0,23.8,0
2004/5/2,20:30,20.8,0,62,0,26.3,0,55,0,=,1,25,0,23.8,0
2004/5/2,20:45,20.9,0,62,0,26.4,0,56,0,=,1,25.5,0,23.8,0
2004/5/2,21:00,20.9,0,62,0,26.4,0,57,0,=,1,25.6,0,23.8,0
2004/5/2,21:15,21,0,61,0,26.5,0,59,0,=,1,25.7,0,23.8,0
2004/5/2,21:30,20.9,0,62,0,26.6,0,59,0,=,1,25.9,0,23.8,0
2004/5/2,21:45,21.2,0,61,0,26.8,0,59,0,=,1,26,0,23.8,0
2004/5/2,22:00,21.2,0,60,0,27.2,0,61,0,=,1,26.1,0,23.9,0
2004/5/2,22:15,21.2,0,60,0,27.1,0,62,0,=,1,26.2,0,23.9,0
2004/5/2,22:30,21.1,0,61,0,27.2,0,63,0,=,1,26.3,0,23.9,0
2004/5/2,22:45,21.1,0,61,0,27.3,0,63,0,=,1,26.6,0,24,0
2004/5/2,23:00,21.1,0,61,0,27.5,0,63,0,=,1,26.7,0,24,0
2004/5/2,23:15,20.8,0,63,0,27.6,0,63,0,=,1,26.7,0,24.1,0
2004/5/2,23:30,20.3,0,67,0,27.6,0,57,0,=,1,26.8,0,24.1,0
2004/5/2,23:45,20.2,0,70,0,27.6,0,56,0,=,1,26.8,0,24.1,0
2004/5/3,0:00,20,0,70,0,27.6,0,55,0,=,1,26.6,0,24.2,0
2004/5/3,0:15,20.3,0,66,0,27.6,0,54,0,=,1,26.7,0,24.2,0
2004/5/3,0:30,20.5,0,65,0,27.5,0,53,0,=,1,26.6,0,24.2,0
2004/5/3,0:45,20.3,0,68,0,27.4,0,53,0,=,1,26.6,0,24.2,0
2004/5/3,1:00,19.8,0,72,0,27.3,0,53,0,=,1,26.5,0,24.3,0
2004/5/3,1:15,19.5,0,74,0,27.2,0,53,0,=,1,26.4,0,24.3,0
2004/5/3,1:30,19.5,0,74,0,27.1,0,53,0,=,1,26.4,0,24.3,0
2004/5/3,1:45,19.6,0,72,0,27,0,53,0,=,1,26.3,0,24.3,0
2004/5/3,2:00,19.7,0,70,0,26.9,0,53,0,=,1,26.3,0,24.2,0
2004/5/3,2:15,19.7,0,69,0,26.7,0,53,0,=,1,26.2,0,24.2,0
2004/5/3,2:30,19.7,0,69,0,26.7,0,53,0,=,1,26.2,0,24.2,0
2004/5/3,2:45,19.7,0,68,0,26.6,0,53,0,=,1,26.1,0,24.2,0
2004/5/3,3:00,19.7,0,67,0,26.5,0,53,0,=,1,26.1,0,24.2,0
2004/5/3,3:15,19.7,0,67,0,26.5,0,53,0,=,1,26,0,24.2,0
2004/5/3,3:30,19.6,0,68,0,26.4,0,53,0,=,1,25.9,0,24.2,0
2004/5/3,3:45,19.5,0,69,0,26.3,0,53,0,=,1,25.9,0,24.2,0
2004/5/3,4:00,19.6,0,69,0,26.3,0,53,0,=,1,25.9,0,24.2,0
2004/5/3,4:15,19.4,0,71,0,26.2,0,53,0,=,1,25.8,0,24.2,0
2004/5/3,4:30,19.4,0,71,0,26.1,0,53,0,=,1,25.8,0,24.2,0
2004/5/3,4:45,19.3,0,70,0,26.1,0,54,0,=,1,25.7,0,24.2,0
2004/5/3,5:00,19.4,0,70,0,26,0,54,0,=,1,25.7,0,24.2,0
2004/5/3,5:15,19.4,0,71,0,26,0,54,0,=,1,25.7,0,24.2,0
2004/5/3,5:30,19.4,0,73,0,26,0,54,0,=,1,25.7,0,24.2,0
2004/5/3,5:45,19.2,0,75,0,25.9,0,54,0,=,1,25.7,0,24.2,0
2004/5/3,6:00,19.1,0,75,0,25.9,0,55,0,=,1,25.7,0,24.2,0
2004/5/3,6:15,19.1,0,75,0,25.8,0,55,0,=,1,25.6,0,24.2,0
2004/5/3,6:30,19.1,0,75,0,25.8,0,55,0,=,1,25.6,0,24.2,0
2004/5/3,6:45,19.3,0,74,0,25.8,0,55,0,=,1,25.6,0,24.2,0
2004/5/3,7:00,19.8,0,72,0,25.9,0,56,0,=,1,25.5,0,24.2,0
2004/5/3,7:15,19.7,0,71,0,25.8,0,55,0,=,1,25.5,0,24.2,0
2004/5/3,7:30,20,0,70,0,25.6,0,55,0,=,1,25.5,0,24.2,0
2004/5/3,7:45,20.7,0,66,0,25,0,57,0,=,1,25.4,0,24.2,0
2004/5/3,8:00,20.9,0,66,0,25,0,58,0,=,1,25.1,0,24.2,0
2004/5/3,8:15,20.8,0,66,0,25,0,58,0,=,1,24.7,0,24.2,0
2004/5/3,8:30,21.5,0,63,0,25,0,58,0,=,1,24.6,0,24.2,0
2004/5/3,8:45,21.1,0,67,0,25.1,0,58,0,=,1,24.5,0,24.2,0
2004/5/3,9:00,20.1,0,73,0,24.8,0,59,0,=,1,24.5,0,24.2,0
2004/5/3,9:15,20.1,0,74,0,24.9,0,60,0,=,1,24.5,0,24.1,0
2004/5/3,9:30,20.1,0,75,0,24.7,0,63,0,=,1,24.4,0,24.1,0
2004/5/3,9:45,20.2,0,75,0,24.8,0,63,0,=,1,24.3,0,24,0
2004/5/3,10:00,20.2,0,75,0,24.7,0,62,0,=,1,24.2,0,24,0
2004/5/3,10:15,20.3,0,76,0,24.6,0,63,0,=,1,24.1,0,24,0
2004/5/3,10:30,20.2,0,76,0,24.6,0,64,0,=,1,23.9,0,24,0
2004/5/3,10:45,20.1,0,78,0,24.5,0,65,0,=,1,24,0,24,0
2004/5/3,11:00,20.1,0,79,0,24.6,0,65,0,=,1,23.9,0,24,0
2004/5/3,11:15,20,0,80,0,24.6,0,65,0,=,1,24,0,24,0
2004/5/3,11:30,20.1,0,81,0,24.4,0,66,0,=,1,24,0,24,0
2004/5/3,11:45,20.1,0,81,0,24.4,0,68,0,=,1,23.9,0,24,0
2004/5/3,12:00,19.9,0,82,0,24.4,0,69,0,=,1,23.8,0,24,0
2004/5/3,12:15,20,0,83,0,24.2,0,69,0,=,1,23.8,0,24,0
2004/5/3,12:30,20.1,0,81,0,24,0,70,0,=,1,23.8,0,24,0
2004/5/3,12:45,19.9,0,82,0,24,0,73,0,=,1,23.8,0,24,0
2004/5/3,13:00,20,0,82,0,23.8,0,72,0,=,1,23.7,0,24,0
2004/5/3,13:15,20.3,0,80,0,23.6,0,73,0,=,1,23.8,0,24,0
2004/5/3,13:30,20.5,0,80,0,23.6,0,75,0,=,1,23.7,0,24,0
2004/5/3,13:45,20.7,0,80,0,23.5,0,74,0,=,1,23.6,0,24,0
2004/5/3,14:00,20.3,0,79,0,23.5,0,75,0,=,1,23.7,0,24,0
2004/5/3,14:15,20.1,0,81,0,23.7,0,74,0,=,1,23.8,0,24,0
2004/5/3,14:30,19.8,0,83,0,24,0,73,0,=,1,23.7,0,24,0
2004/5/3,14:45,19.8,0,83,0,23.7,0,74,0,=,1,23.7,0,24,0
2004/5/3,15:00,19.8,0,84,0,23.7,0,74,0,=,1,23.7,0,24,0
2004/5/3,15:15,19.6,0,85,0,23.9,0,73,0,=,1,23.6,0,24,0
2004/5/3,15:30,19.7,0,84,0,24.1,0,72,0,=,1,23.6,0,24,0
2004/5/3,15:45,20,0,83,0,24.1,0,72,0,=,1,23.6,0,24.1,0
2004/5/3,16:00,20.1,0,83,0,24.2,0,72,0,=,1,23.6,0,24,0
2004/5/3,16:15,20.3,0,82,0,24.3,0,72,0,=,1,23.6,0,24,0
2004/5/3,16:30,20.7,0,79,0,24.4,0,71,0,=,1,23.6,0,24,0
2004/5/3,16:45,20.7,0,79,0,24.3,0,72,0,=,1,23.7,0,24,0
2004/5/3,17:00,20.9,0,79,0,24.5,0,71,0,=,1,23.6,0,24,0
2004/5/3,17:15,21.2,0,78,0,24.6,0,71,0,=,1,23.7,0,24,0
2004/5/3,17:30,21.2,0,79,0,24.7,0,74,0,=,1,23.7,0,24,0
2004/5/3,17:45,21.8,0,79,0,24.9,0,73,0,=,1,23.8,0,24,0
2004/5/3,18:00,21.8,0,78,0,24.8,0,70,0,=,1,23.9,0,24.1,0
2004/5/3,18:15,22.1,0,77,0,25.1,0,70,0,=,1,24,0,24.1,0
2004/5/3,18:30,22,0,77,0,25.5,0,73,0,=,1,24,0,24.1,0
2004/5/3,18:45,22.1,0,77,0,25.7,0,75,0,=,1,24.2,0,24.1,0
2004/5/3,19:00,22.3,0,74,0,25.7,0,73,0,=,1,24.5,0,24.1,0
2004/5/3,19:15,22.3,0,75,0,25.6,0,72,0,=,1,24.7,0,24.2,0
2004/5/3,19:30,22.2,0,76,0,25.6,0,72,0,=,1,24.7,0,24.2,0
2004/5/3,19:45,22.3,0,76,0,25.6,0,71,0,=,1,24.8,0,24.2,0
2004/5/3,20:00,22.4,0,74,0,25.9,0,73,0,=,1,24.9,0,24.2,0
2004/5/3,20:15,22.5,0,74,0,26.1,0,73,0,=,1,25.1,0,24.2,0
2004/5/3,20:30,22.5,0,75,0,26.3,0,72,0,=,1,25.4,0,24.2,0
2004/5/3,20:45,22.5,0,75,0,26.4,0,71,0,=,1,25.6,0,24.2,0
2004/5/3,21:00,22.3,0,78,0,26.4,0,70,0,=,1,25.7,0,24.2,0
2004/5/3,21:15,21.8,0,81,0,26.6,0,70,0,=,1,25.8,0,24.3,0
2004/5/3,21:30,22,0,81,0,26.9,0,73,0,=,1,25.9,0,24.3,0
2004/5/3,21:45,21.7,0,81,0,27,0,73,0,=,1,26.1,0,24.4,0
2004/5/3,22:00,21.6,0,82,0,27.1,0,74,0,=,1,26.2,0,24.4,0
2004/5/3,22:15,20.3,0,82,0,27.3,0,75,0,=,1,26.4,0,24.4,0
2004/5/3,22:30,20.1,0,83,0,27.5,0,74,0,=,1,26.5,0,24.5,0
2004/5/3,22:45,20,0,78,0,27.6,0,74,0,=,1,26.7,0,24.5,0
2004/5/3,23:00,19,0,86,0,27.7,0,70,0,=,1,26.8,0,24.5,0
2004/5/3,23:15,19.6,0,82,0,27.9,0,70,0,=,1,27,0,24.6,0
2004/5/3,23:30,20.2,0,83,0,28,0,71,0,=,1,27,0,24.6,0
2004/5/3,23:45,20.2,0,82,0,28.1,0,69,0,=,1,27,0,24.7,0
2004/5/4,0:00,20.5,0,81,0,28.2,0,69,0,=,1,27.1,0,24.7,0
2004/5/4,0:15,20.2,0,81,0,28.3,0,68,0,=,1,27.1,0,24.7,0
2004/5/4,0:30,20.5,0,80,0,28.2,0,66,0,=,1,27.2,0,24.7,0
2004/5/4,0:45,20.8,0,79,0,28.1,0,64,0,=,1,27.2,0,24.7,0
2004/5/4,1:00,20.8,0,78,0,28.1,0,63,0,=,1,27.2,0,24.7,0
2004/5/4,1:15,20.8,0,79,0,28,0,63,0,=,1,27.1,0,24.8,0
2004/5/4,1:30,21.2,0,77,0,27.8,0,64,0,=,1,27,0,24.8,0
2004/5/4,1:45,20.4,0,80,0,27.8,0,64,0,=,1,27,0,24.9,0
2004/5/4,2:00,20,0,82,0,27.6,0,64,0,=,1,27,0,25,0
2004/5/4,2:15,20.2,0,82,0,27.5,0,64,0,=,1,26.9,0,25,0
2004/5/4,2:30,20.2,0,80,0,27.4,0,64,0,=,1,26.8,0,25.1,0
2004/5/4,2:45,20.3,0,81,0,27.4,0,65,0,=,1,26.8,0,25.1,0
2004/5/4,3:00,19,0,83,0,27.2,0,65,0,=,1,26.8,0,25.2,0
2004/5/4,3:15,18.9,0,89,0,27.1,0,65,0,=,1,26.7,0,25.3,0
2004/5/4,3:30,18.1,0,84,0,27.1,0,65,0,=,1,26.7,0,25.3,0
2004/5/4,3:45,17.2,0,82,0,27,0,65,0,=,1,26.6,0,25.4,0
2004/5/4,4:00,16.9,0,82,0,26.9,0,65,0,=,1,26.6,0,25.4,0
2004/5/4,4:15,16.3,0,80,0,26.8,0,64,0,=,1,26.5,0,25.4,0
2004/5/4,4:30,16.5,0,84,0,26.8,0,63,0,=,1,26.4,0,25.5,0
2004/5/4,4:45,16.4,0,85,0,26.7,0,62,0,=,1,26.4,0,25.5,0
2004/5/4,5:00,16.4,0,85,0,26.6,0,61,0,=,1,26.3,0,25.5,0
2004/5/4,5:15,16.3,0,85,0,26.5,0,62,0,=,1,26.2,0,25.5,0
2004/5/4,5:30,16.2,0,85,0,26.4,0,62,0,=,1,26.1,0,25.5,0
2004/5/4,5:45,16,0,84,0,26.4,0,61,0,=,1,26.1,0,25.5,0
2004/5/4,6:00,15.8,0,84,0,26.3,0,61,0,=,1,26,0,25.4,0
2004/5/4,6:15,15.9,0,84,0,26.2,0,61,0,=,1,25.9,0,25.4,0
2004/5/4,6:30,15.4,0,83,0,26.1,0,61,0,=,1,25.9,0,25.4,0
2004/5/4,6:45,15.4,0,85,0,26.1,0,60,0,=,1,25.8,0,25.3,0
2004/5/4,7:00,15.4,0,83,0,26,0,59,0,=,1,25.7,0,25.3,0
2004/5/4,7:15,15.1,0,83,0,25.8,0,59,0,=,1,25.7,0,25.3,0
2004/5/4,7:30,15.1,0,83,0,25.8,0,59,0,=,1,25.6,0,25.3,0
2004/5/4,7:45,15.1,0,83,0,25.6,0,59,0,=,1,25.5,0,25.3,0
2004/5/4,8:00,15,0,82,0,25.5,0,58,0,=,1,25.4,0,25.3,0
2004/5/4,8:15,15,0,83,0,25.5,0,59,0,=,1,25.3,0,25.2,0
2004/5/4,8:30,15.1,0,82,0,25.6,0,59,0,=,1,25.2,0,25.2,0
2004/5/4,8:45,15.3,0,79,0,25.5,0,59,0,=,1,25.2,0,25.1,0
2004/5/4,9:00,15.3,0,78,0,25.1,0,55,0,=,1,25.2,0,25.1,0
2004/5/4,9:15,15.3,0,78,0,23.2,0,57,0,=,1,25,0,25.1,0
2004/5/4,9:30,15.3,0,77,0,22.9,0,58,0,=,1,24.5,0,24.9,0
2004/5/4,9:45,15.2,0,76,0,22.5,0,59,0,=,1,23.6,0,24.7,0
2004/5/4,10:00,15.1,0,75,0,22.2,0,59,0,=,1,23.1,0,24.5,0
2004/5/4,10:15,14.6,0,75,0,22,0,59,0,=,1,22.6,0,24.3,0
2004/5/4,10:30,14.5,0,76,0,22.3,0,60,0,=,1,22.3,0,24.2,0
2004/5/4,10:45,14.4,0,76,0,22.7,0,59,0,=,1,22.1,0,24,0
2004/5/4,11:00,14.3,0,77,0,22.4,0,58,0,=,1,22.4,0,23.9,0
2004/5/4,11:15,14.1,0,75,0,22.2,0,56,0,=,1,22.6,0,23.7,0
2004/5/4,11:30,14.1,0,75,0,21.8,0,56,0,=,1,22.2,0,23.5,0
2004/5/4,11:45,14.1,0,74,0,22.1,0,58,0,=,1,22.1,0,23.4,0
2004/5/4,12:00,14.6,0,72,0,22.5,0,59,0,=,1,21.6,0,23.3,0
2004/5/4,12:15,14.5,0,70,0,22.6,0,58,0,=,1,21.9,0,23.1,0
2004/5/4,12:30,15,0,67,0,22.2,0,55,0,=,1,22.1,0,22.9,0
2004/5/4,12:45,14.2,0,64,0,22.5,0,56,0,=,1,22.3,0,22.8,0
2004/5/4,13:00,15.5,0,61,0,22.7,0,56,0,=,1,22.1,0,22.7,0
2004/5/4,13:15,15.4,0,62,0,22.6,0,54,0,=,1,22.2,0,22.7,0
2004/5/4,13:30,15.3,0,60,0,22.6,0,53,0,=,1,22.1,0,22.6,0
2004/5/4,13:45,15.4,0,59,0,22.5,0,52,0,=,1,22,0,22.5,0
2004/5/4,14:00,16.2,0,56,0,22.4,0,52,0,=,1,22,0,22.5,0
2004/5/4,14:15,16.1,0,55,0,22.3,0,51,0,=,1,21.9,0,22.4,0
2004/5/4,14:30,17.3,0,52,0,22.1,0,51,0,=,1,21.8,0,22.3,0
2004/5/4,14:45,17.7,0,51,0,22,0,52,0,=,1,21.7,0,22.2,0
2004/5/4,15:00,18,0,51,0,22,0,52,0,=,1,21.7,0,22.1,0
2004/5/4,15:15,15.2,0,52,0,22,0,52,0,=,1,21.7,0,22,0
2004/5/4,15:30,17.3,0,54,0,22.1,0,52,0,=,1,21.6,0,22,0
2004/5/4,15:45,17.1,0,54,0,22,0,53,0,=,1,21.7,0,21.9,0
2004/5/4,16:00,17,0,53,0,21.9,0,53,0,=,1,21.7,0,21.9,0
2004/5/4,16:15,17.5,0,50,0,21.9,0,53,0,=,1,21.7,0,21.9,0
2004/5/4,16:30,17.2,0,54,0,22,0,54,0,=,1,21.7,0,21.9,0
2004/5/4,16:45,17.1,0,54,0,22.1,0,53,0,=,1,21.7,0,21.9,0
2004/5/4,17:00,16.9,0,55,0,22,0,54,0,=,1,21.7,0,21.9,0
2004/5/4,17:15,14.1,0,58,0,22.1,0,53,0,=,1,21.7,0,21.9,0
2004/5/4,17:30,15.7,0,58,0,22,0,52,0,=,1,21.7,0,21.8,0
2004/5/4,17:45,15.5,0,60,0,22.3,0,53,0,=,1,21.8,0,21.8,0
2004/5/4,18:00,14.8,0,60,0,22.3,0,54,0,=,1,21.8,0,21.8,0
2004/5/4,18:15,12.8,0,61,0,22.3,0,54,0,=,1,21.8,0,21.8,0
2004/5/4,18:30,13.6,0,66,0,22.4,0,53,0,=,1,21.8,0,21.8,0
2004/5/4,18:45,14.8,0,65,0,22.4,0,53,0,=,1,21.8,0,21.8,0
2004/5/4,19:00,13.4,0,66,0,22.5,0,53,0,=,1,21.7,0,21.7,0
2004/5/4,19:15,14.2,0,68,0,22.6,0,53,0,=,1,21.8,0,21.7,0
2004/5/4,19:30,13.9,0,70,0,22.6,0,54,0,=,1,21.9,0,21.7,0
2004/5/4,19:45,13.6,0,74,0,22.7,0,57,0,=,1,21.9,0,21.6,0
2004/5/4,20:00,14,0,73,0,23,0,57,0,=,1,22,0,21.6,0
2004/5/4,20:15,13.2,0,76,0,23.2,0,57,0,=,1,22.3,0,21.6,0
2004/5/4,20:30,13.6,0,72,0,23.3,0,58,0,=,1,22.5,0,21.6,0
2004/5/4,20:45,13.5,0,73,0,23.4,0,57,0,=,1,22.6,0,21.6,0
2004/5/4,21:00,13.9,0,73,0,23.6,0,58,0,=,1,22.6,0,21.6,0
2004/5/4,21:15,13,0,73,0,23.7,0,58,0,=,1,22.5,0,21.6,0
2004/5/4,21:30,13.1,0,74,0,23.8,0,57,0,=,1,22.6,0,21.6,0
2004/5/4,21:45,12.7,0,77,0,23.8,0,56,0,=,1,22.6,0,21.6,0
2004/5/4,22:00,13.2,0,79,0,23.8,0,56,0,=,1,22.7,0,21.6,0
2004/5/4,22:15,12.9,0,86,0,23.9,0,57,0,=,1,22.8,0,21.6,0
2004/5/4,22:30,12.7,0,78,0,24,0,57,0,=,1,22.9,0,21.6,0
2004/5/4,22:45,11.7,0,84,0,24.1,0,57,0,=,1,23,0,21.6,0
2004/5/4,23:00,12.5,0,85,0,24.1,0,57,0,=,1,23.1,0,21.6,0
2004/5/4,23:15,12.4,0,85,0,24.4,0,57,0,=,1,23.2,0,21.6,0
2004/5/4,23:30,12.5,0,81,0,24.5,0,58,0,=,1,23.3,0,21.6,0
2004/5/4,23:45,11.5,0,80,0,24.6,0,58,0,=,1,23.6,0,21.6,0
2004/5/5,0:00,11.7,0,83,0,24.5,0,56,0,=,1,23.7,0,21.6,0
2004/5/5,0:15,12.7,0,88,0,24.6,0,54,0,=,1,23.7,0,21.6,0
2004/5/5,0:30,12,0,88,0,24.5,0,53,0,=,1,23.7,0,21.5,0
2004/5/5,0:45,11.4,0,86,0,24.2,0,52,0,=,1,23.6,0,21.5,0
2004/5/5,1:00,12.6,0,83,0,24.1,0,53,0,=,1,23.6,0,21.5,0
2004/5/5,1:15,12.4,0,83,0,24.2,0,53,0,=,1,23.5,0,21.5,0
2004/5/5,1:30,11.9,0,87,0,24,0,53,0,=,1,23.4,0,21.5,0
2004/5/5,1:45,12.5,0,84,0,24,0,54,0,=,1,23.4,0,21.5,0
2004/5/5,2:00,12.4,0,83,0,23.8,0,54,0,=,1,23.3,0,21.5,0
2004/5/5,2:15,12.2,0,84,0,23.7,0,55,0,=,1,23.3,0,21.6,0
2004/5/5,2:30,12.1,0,84,0,23.7,0,55,0,=,1,23.2,0,21.6,0
2004/5/5,2:45,12.2,0,85,0,23.6,0,56,0,=,1,23.2,0,21.6,0
2004/5/5,3:00,12.4,0,85,0,23.4,0,56,0,=,1,23.1,0,21.6,0
2004/5/5,3:15,11.9,0,85,0,23.3,0,56,0,=,1,23.1,0,21.6,0
2004/5/5,3:30,11.6,0,84,0,23.3,0,56,0,=,1,23,0,21.6,0
2004/5/5,3:45,11.5,0,84,0,23.3,0,56,0,=,1,23,0,21.6,0
2004/5/5,4:00,11.5,0,83,0,23.1,0,57,0,=,1,22.9,0,21.6,0
2004/5/5,4:15,11.3,0,84,0,23,0,57,0,=,1,22.8,0,21.5,0
2004/5/5,4:30,11.1,0,84,0,22.9,0,57,0,=,1,22.8,0,21.5,0
2004/5/5,4:45,11.1,0,84,0,22.8,0,57,0,=,1,22.7,0,21.5,0
2004/5/5,5:00,10.9,0,84,0,22.7,0,57,0,=,1,22.7,0,21.5,0
2004/5/5,5:15,10.9,0,84,0,22.8,0,57,0,=,1,22.6,0,21.5,0
2004/5/5,5:30,10.8,0,84,0,22.7,0,57,0,=,1,22.6,0,21.4,0
2004/5/5,5:45,10.7,0,84,0,22.5,0,57,0,=,1,22.5,0,21.4,0
2004/5/5,6:00,10.8,0,85,0,22.5,0,57,0,=,1,22.4,0,21.4,0
2004/5/5,6:15,10.8,0,85,0,22.5,0,57,0,=,1,22.4,0,21.4,0
2004/5/5,6:30,10.7,0,82,0,22.3,0,57,0,=,1,22.3,0,21.3,0
2004/5/5,6:45,11.1,0,78,0,22.3,0,57,0,=,1,22.2,0,21.3,0
2004/5/5,7:00,12.2,0,75,0,22.2,0,57,0,=,1,22.2,0,21.3,0
2004/5/5,7:15,12.5,0,77,0,22.2,0,57,0,=,1,22.1,0,21.2,0
2004/5/5,7:30,13.2,0,72,0,22.1,0,57,0,=,1,22.1,0,21.3,0
2004/5/5,7:45,12.4,0,69,0,22.2,0,57,0,=,1,22,0,21.3,0
2004/5/5,8:00,13.6,0,63,0,22,0,53,0,=,1,22,0,21.3,0
2004/5/5,8:15,13.9,0,70,0,21.8,0,51,0,=,1,21.9,0,21.3,0
2004/5/5,8:30,14.5,0,55,0,21.5,0,53,0,=,1,21.6,0,21.2,0
2004/5/5,8:45,14.8,0,54,0,21.4,0,55,0,=,1,21.2,0,21.2,0